OBJECT C, 59775

Orbit data source: Space-Track

You're viewing an Uncataloged Satellite

Recently launched and/or uncataloged satellites may have evolving metadata. Metadata may include but not limited to: Owner, Maufacturer, Bus, Motor, and Mission.

OBJECT C, 59775 is a satellite owned by Sputniks (CIS) in SSO that was launched on Thu, 16 May 2024 UTC via a SOYUZ-2-1B launch vehicle from the Plesetsk Missile And Space Complex (PKMTR). Unknown objects in Earth's orbit typically refer to objects detected orbiting the Earth but have not yet been identified or cataloged. These objects could be anything from previously untracked satellites, spent rocket stages, debris from satellite collisions, or even natural meteoroids temporarily captured by Earth's gravity.

Loading next visibility...
OBJECT C details
Identifier
59775, 2024-092C
Orbit
SSO
Last TLE update12 hours ago
Origin
Flag of CISSputniks (CIS)
ManufacturerSputniks
MissionOperational spacecraft
Bus & MotorCUBESAT 12U, Unknown motor
Mass20 kg wet, 20 kg dry
Launch date (UTC)
2024-05-16 (7 months ago)
Launch vehicle
SOYUZ-2-1B
Launch site
Plesetsk Missile And Space Complex (PKMTR)
Object typeUnknown
Shape & HBRUnknown
Radar Cross SectionMedium (>0.1 m² and <1 m²)

Expand to show TLE details & history

TLE from 12 hours ago
0 OBJECT C
1 59775U 24092C   24356.12976419  .00013978  00000-0  74467-3 0  9998
2 59775  97.6151 107.3490 0011012 277.1716  82.8263 15.15268162 32948
Epoch: 2024-12-21T03:06Z
Definitive object data (Epoch: 2024-12-21T03:06:51.626Z)
Latitude-0.00008°
Longitude-29.55145°
Altitude522.302 km
Speed7.603 km/s
True Right ascension07h 09m 23s
True Declination0° 00' 00"
Sunlit
Object was in full shadow at TLE epoch
Visualization TLE readout
Latitude40.34707°
Longitude157.4226°
Altitude531.45 km
Speed7.598 km/s
Apparent Right ascension22h 35m 26s
Apparent Declination3° 07' 32"
Sunlit
Object is in daylight
Visualization observer readout
Local Sidereal Time13:51:31
Azimuth58.497° ENE
Elevation-27.856°
Doppler factor1
Orbital elements
Apogee altitude524.739 km
Perigee altitude509.553 km
Semi-major axis6,895.283 km
Eccentricity0.0011012
Inclination97.6151°
RAAN107.349°
Arg. of periapsis277.1716°
True anomaly82.95152°
Mean anomaly82.8263°
Eccentric anomaly82.88891°
Mean motion3.79066 °/min
BSTAR0.00074467
Orbital period94.97 mins
Loading maneuver chart data...
Loading historical data...
Loading historical data...
Loading historical data...
Loading historical data...
Loading historical data...
Loading historical data...
Loading historical data...

OBJECT C Visibility forecast

Observer location: undefined°, undefined

Span
Click to sort rows by Start time (UTC) header in descending order
Start Az.
Max El. time (UTC)
Max El. Az.
Max El.
End time (UTC)
End Az.
4 mins2024-12-21 19:33:19.741Z61.989° ENE2024-12-21 19:35:19.741Z97.319° ESE15.319°2024-12-21 19:37:19.741Z130.335° SE
5 mins2024-12-21 21:07:19.741Z337.99° N2024-12-21 21:09:19.741Z288.011° WNW27.827°2024-12-21 21:12:19.741Z227.651° WSW
6 mins2024-12-22 07:46:19.741Z173.283° S2024-12-22 07:49:19.741Z300.035° NW43.586°2024-12-22 07:52:19.741Z343.915° N
|